This is the latest recevied weather packets stored in our database for station/object KB4NWJ. If no packets are shown the sender has not sent any weather packets the latest 10 day(s).
| Time | Temp. | Humidity | Pressure | Rain* | Wind** | Luminosity | Snow |
|---|---|---|---|---|---|---|---|
| 1777941981 | 18.89° C | 58% | 1015.4 hPa | 0 mm | - | 0 W/m² | - |
| 1777941678 | 19.44° C | 57% | 1015.2 hPa | 0 mm | - | 0 W/m² | - |
| 1777941375 | 20° C | 55% | 1015.4 hPa | 0 mm | - | 0 W/m² | - |
| 1777941072 | 20° C | 53% | 1015.4 hPa | 0 mm | - | 0 W/m² | - |
| 1777940768 | 20° C | 53% | 1015.2 hPa | 0 mm | - | 0 W/m² | - |
| 1777940467 | 20.56° C | 52% | 1015.4 hPa | 0 mm | - | 3 W/m² | - |
| 1777940164 | 20.56° C | 51% | 1015.2 hPa | 0 mm | - | 6 W/m² | - |
| 1777939861 | 21.11° C | 50% | 1015.1 hPa | 0 mm | - | 8 W/m² | - |
| 1777939558 | 21.11° C | 49% | 1015.3 hPa | 0 mm | - | 11 W/m² | - |
| 1777939256 | 21.67° C | 48% | 1015.2 hPa | 0 mm | - | 12 W/m² | - |
| 1777938952 | 21.67° C | 47% | 1015.4 hPa | 0 mm | - | 16 W/m² | - |
| 1777938649 | 22.22° C | 46% | 1015.3 hPa | 0 mm | - | 18 W/m² | - |
| 1777938346 | 22.22° C | 44% | 1015.2 hPa | 0 mm | - | 20 W/m² | - |
| 1777938043 | 22.22° C | 45% | 1015.2 hPa | 0 mm | - | 22 W/m² | - |
| 1777937738 | 22.78° C | 42% | 1015.2 hPa | 0 mm | - | 24 W/m² | - |
| 1777937435 | 22.78° C | 41% | 1015.2 hPa | 0 mm | - | 27 W/m² | - |
| 1777937132 | 22.78° C | 42% | 1015.1 hPa | 0 mm | - | 31 W/m² | - |
| 1777936830 | 22.78° C | 42% | 1015.5 hPa | 0 mm | - | 33 W/m² | - |
| 1777936526 | 23.33° C | 43% | 1015.2 hPa | 0 mm | - | 35 W/m² | - |
| 1777936222 | 23.33° C | 44% | 1015.2 hPa | 0 mm | - | 37 W/m² | - |
| 1777935919 | 23.33° C | 44% | 1015.1 hPa | 0 mm | - | 37 W/m² | - |
| 1777935618 | 23.33° C | 44% | 1015.2 hPa | 0 mm | - | 39 W/m² | - |
| 1777935314 | 23.89° C | 43% | 1015.4 hPa | 0 mm | - | 40 W/m² | - |
| 1777935012 | 24.44° C | 43% | 1015.2 hPa | 0 mm | - | 58 W/m² | - |
| 1777934708 | 24.44° C | 41% | 1015.3 hPa | 0 mm | - | 147 W/m² | - |
* Rain latest hour (hover to see other rain measurements)
** Current wind speed in m/s (hover to see current wind gust speed)